Location: W�rzburg
(49.7529°N, 9.8822°E)
Time: 15:10:05
(UTC+01:00)

ISS - Pass Details

Date: 12 November 2017
Orbit: 402 x 407 km, 51.6° (Epoch: 21 November)

Event Time Altitude Azimuth Distance (km) Brightness Sun altitude
Exits shadow 04:19:52 13° 79° (E) 1,284 -0.5 -30.3°
Drops below altitude 10° 04:20:18 10° 81° (E) 1,457 -0.1 -30.2°
Sets 04:22:24 0° 85° (E) 2,317 1.2 -29.9°
